Tracking 30995 objects as of 7-Jul-2025
HD Live streaming from Space Station
objects crossing your sky now

STARLINK-2636

Track STARLINK-2636 now!
10-day predictions
STARLINK-2636 is classified as:


NORAD ID: 48357
Int'l Code: 2021-038E
Perigee: 553.5 km
Apogee: 555.3 km
Inclination: 53.1 °
Period: 95.6 minutes
Semi major axis: 6925 km
RCS: Unknown
Launch date: May 4, 2021
Source: United States (US)
Launch site: AIR FORCE EASTERN TEST RANGE (AFETR)
Your satellite tracking list
METEOR 2-8 DEB
Track 1 satellite(s)




NASA's NSSDC Master Catalog

Two Line Element Set (TLE):
1 48357U 21038E   25187.74641787 -.00001285  00000-0 -67420-4 0  9999
2 48357  53.0558  26.1231 0001307  88.8996 271.2143 15.06398351230544
Source of the keplerian elements: AFSPC